Year,Month,Day,Hour,Minute,Value (Times are PST for windspeed in km/hr)
2006,02,02,00,00,1.90
2006,02,02,00,01,1.60
2006,02,02,00,02,3.60
2006,02,02,00,03,6.70
2006,02,02,00,04,3.60
2006,02,02,00,05,2.50
2006,02,02,00,06,1.80
2006,02,02,00,07,1.30
2006,02,02,00,08,13.60
2006,02,02,00,09,10.50
2006,02,02,00,10,6.40
2006,02,02,00,11,7.10
2006,02,02,00,12,3.30
2006,02,02,00,13,2.40
2006,02,02,00,14,3.30
2006,02,02,00,15,2.60
2006,02,02,00,16,4.10
2006,02,02,00,17,4.60
2006,02,02,00,18,5.00
2006,02,02,00,19,5.10
2006,02,02,00,20,4.40
2006,02,02,00,21,4.00
2006,02,02,00,22,1.90
2006,02,02,00,23,2.80
2006,02,02,00,24,4.30
2006,02,02,00,25,4.60
2006,02,02,00,26,4.10
2006,02,02,00,27,4.10
2006,02,02,00,28,4.80
2006,02,02,00,29,6.20
2006,02,02,00,30,3.60
2006,02,02,00,31,3.50
2006,02,02,00,32,3.60
2006,02,02,00,33,4.80
2006,02,02,00,34,4.70
2006,02,02,00,35,4.20
2006,02,02,00,36,5.30
2006,02,02,00,37,6.10
2006,02,02,00,38,7.00
2006,02,02,00,39,10.10
2006,02,02,00,40,7.80
2006,02,02,00,41,5.20
2006,02,02,00,42,5.30
2006,02,02,00,43,2.80
2006,02,02,00,44,4.30
2006,02,02,00,45,2.90
2006,02,02,00,46,6.60
2006,02,02,00,47,1.80
2006,02,02,00,48,3.40
2006,02,02,00,49,7.60
2006,02,02,00,50,8.40
2006,02,02,00,51,6.40
2006,02,02,00,52,7.40
2006,02,02,00,53,6.40
2006,02,02,00,54,4.00
2006,02,02,00,55,3.60
2006,02,02,00,56,6.60
2006,02,02,00,57,6.10
2006,02,02,00,58,3.40
2006,02,02,00,59,4.10
2006,02,02,01,00,5.70
2006,02,02,01,01,4.20
2006,02,02,01,02,2.70
2006,02,02,01,03,5.10
2006,02,02,01,04,3.80
2006,02,02,01,05,3.80
2006,02,02,01,06,4.00
2006,02,02,01,07,7.10
2006,02,02,01,08,3.20
2006,02,02,01,09,0.50
2006,02,02,01,10,0.10
2006,02,02,01,11,1.80
2006,02,02,01,12,4.50
2006,02,02,01,13,4.20
2006,02,02,01,14,3.90
2006,02,02,01,15,6.20
2006,02,02,01,16,5.20
2006,02,02,01,17,5.00
2006,02,02,01,18,3.10
2006,02,02,01,19,3.20
2006,02,02,01,20,3.40
2006,02,02,01,21,5.50
2006,02,02,01,22,4.90
2006,02,02,01,23,8.00
2006,02,02,01,24,4.80
2006,02,02,01,25,4.60
2006,02,02,01,26,4.80
2006,02,02,01,27,2.60
2006,02,02,01,28,3.00
2006,02,02,01,29,4.10
2006,02,02,01,30,3.90
2006,02,02,01,31,3.90
2006,02,02,01,32,2.10
2006,02,02,01,33,2.70
2006,02,02,01,34,4.00
2006,02,02,01,35,3.20
2006,02,02,01,36,3.60
2006,02,02,01,37,3.10
2006,02,02,01,38,2.90
2006,02,02,01,39,1.90
2006,02,02,01,40,4.30
2006,02,02,01,41,4.30
2006,02,02,01,42,4.80
2006,02,02,01,43,2.00
2006,02,02,01,44,4.30
2006,02,02,01,45,4.10
2006,02,02,01,46,3.60
2006,02,02,01,47,3.30
2006,02,02,01,48,4.10
2006,02,02,01,49,5.70
2006,02,02,01,50,3.40
2006,02,02,01,51,4.50
2006,02,02,01,52,3.10
2006,02,02,01,53,4.10
2006,02,02,01,54,4.10
2006,02,02,01,55,5.10
2006,02,02,01,56,6.20
2006,02,02,01,57,6.00
2006,02,02,01,58,6.70
2006,02,02,01,59,7.30
2006,02,02,02,00,5.00
2006,02,02,02,01,4.20
2006,02,02,02,02,3.60
2006,02,02,02,03,4.40
2006,02,02,02,04,3.70
2006,02,02,02,05,3.30
2006,02,02,02,06,3.80
2006,02,02,02,07,5.00
2006,02,02,02,08,5.30
2006,02,02,02,09,5.20
2006,02,02,02,10,6.10
2006,02,02,02,11,6.60
2006,02,02,02,12,6.40
2006,02,02,02,13,7.50
2006,02,02,02,14,9.10
2006,02,02,02,15,14.50
2006,02,02,02,16,11.50
2006,02,02,02,17,9.80
2006,02,02,02,18,5.60
2006,02,02,02,19,3.70
2006,02,02,02,20,3.20
2006,02,02,02,21,3.20
2006,02,02,02,22,4.30
2006,02,02,02,23,9.30
2006,02,02,02,24,7.40
2006,02,02,02,25,8.80
2006,02,02,02,26,7.90
2006,02,02,02,27,7.60
2006,02,02,02,28,8.60
2006,02,02,02,29,8.90
2006,02,02,02,30,7.40
2006,02,02,02,31,6.50
2006,02,02,02,32,5.30
2006,02,02,02,33,8.00
2006,02,02,02,34,8.00
2006,02,02,02,35,6.60
2006,02,02,02,36,7.10
2006,02,02,02,37,7.40
2006,02,02,02,38,8.80
2006,02,02,02,39,8.10
2006,02,02,02,40,8.60
2006,02,02,02,41,7.10
2006,02,02,02,42,10.00
2006,02,02,02,43,8.20
2006,02,02,02,44,8.30
2006,02,02,02,45,7.80
2006,02,02,02,46,12.30
2006,02,02,02,47,13.10
2006,02,02,02,48,14.80
2006,02,02,02,49,12.40
2006,02,02,02,50,17.40
2006,02,02,02,51,16.10
2006,02,02,02,52,12.10
2006,02,02,02,53,13.60
2006,02,02,02,54,13.10
2006,02,02,02,55,8.30
2006,02,02,02,56,11.50
2006,02,02,02,57,11.40
2006,02,02,02,58,10.60
2006,02,02,02,59,9.40
2006,02,02,03,00,8.90
2006,02,02,03,01,9.70
2006,02,02,03,02,8.00
2006,02,02,03,03,10.10
2006,02,02,03,04,8.80
2006,02,02,03,05,8.40
2006,02,02,03,06,9.60
2006,02,02,03,07,7.90
2006,02,02,03,08,7.80
2006,02,02,03,09,6.90
2006,02,02,03,10,9.20
2006,02,02,03,11,4.50
2006,02,02,03,12,4.80
2006,02,02,03,13,4.80
2006,02,02,03,14,4.80
2006,02,02,03,15,4.80
2006,02,02,03,16,5.00
2006,02,02,03,17,6.20
2006,02,02,03,18,7.20
2006,02,02,03,19,6.70
2006,02,02,03,20,7.90
2006,02,02,03,21,6.50
2006,02,02,03,22,2.80
2006,02,02,03,23,4.10
2006,02,02,03,24,5.60
2006,02,02,03,25,11.10
2006,02,02,03,26,12.30
2006,02,02,03,27,10.20
2006,02,02,03,28,10.50
2006,02,02,03,29,5.80
2006,02,02,03,30,10.40
2006,02,02,03,31,11.10
2006,02,02,03,32,20.60
2006,02,02,03,33,17.20
2006,02,02,03,34,19.90
2006,02,02,03,35,17.00
2006,02,02,03,36,12.80
2006,02,02,03,37,7.00
2006,02,02,03,38,9.10
2006,02,02,03,39,7.80
2006,02,02,03,40,8.50
2006,02,02,03,41,9.00
2006,02,02,03,42,2.90
2006,02,02,03,43,12.50
2006,02,02,03,44,5.00
2006,02,02,03,45,7.20
2006,02,02,03,46,6.70
2006,02,02,03,47,4.80
2006,02,02,03,48,9.20
2006,02,02,03,49,5.90
2006,02,02,03,50,9.20
2006,02,02,03,51,8.70
2006,02,02,03,52,9.90
2006,02,02,03,53,11.00
2006,02,02,03,54,9.20
2006,02,02,03,55,5.50
2006,02,02,03,56,8.70
2006,02,02,03,57,7.60
2006,02,02,03,58,8.00
2006,02,02,03,59,7.40
2006,02,02,04,00,7.50
2006,02,02,04,01,7.60
2006,02,02,04,02,5.50
2006,02,02,04,03,5.50
2006,02,02,04,04,4.90
2006,02,02,04,05,2.00
2006,02,02,04,06,4.30
2006,02,02,04,07,4.90
2006,02,02,04,08,5.00
2006,02,02,04,09,3.40
2006,02,02,04,10,4.90
2006,02,02,04,11,4.20
2006,02,02,04,12,6.80
2006,02,02,04,13,7.80
2006,02,02,04,14,7.20
2006,02,02,04,15,7.80
2006,02,02,04,16,7.00
2006,02,02,04,17,7.90
2006,02,02,04,18,12.20
2006,02,02,04,19,15.90
2006,02,02,04,20,9.00
2006,02,02,04,21,9.30
2006,02,02,04,22,15.70
2006,02,02,04,23,18.00
2006,02,02,04,24,26.70
2006,02,02,04,25,27.10
2006,02,02,04,26,18.60
2006,02,02,04,27,22.70
2006,02,02,04,28,26.20
2006,02,02,04,29,22.60
2006,02,02,04,30,21.50
2006,02,02,04,31,23.80
2006,02,02,04,32,24.20
2006,02,02,04,33,18.50
2006,02,02,04,34,31.70
2006,02,02,04,35,25.30
2006,02,02,04,36,24.70
2006,02,02,04,37,22.90
2006,02,02,04,38,23.80
2006,02,02,04,39,29.20
2006,02,02,04,40,19.00
2006,02,02,04,41,15.40
2006,02,02,04,42,26.00
2006,02,02,04,43,15.60
2006,02,02,04,44,14.50
2006,02,02,04,45,17.50
2006,02,02,04,46,16.90
2006,02,02,04,47,14.90
2006,02,02,04,48,16.50
2006,02,02,04,49,16.20
2006,02,02,04,50,16.00
2006,02,02,04,51,13.10
2006,02,02,04,52,7.30
2006,02,02,04,53,8.60
2006,02,02,04,54,13.10
2006,02,02,04,55,10.60
2006,02,02,04,56,10.40
2006,02,02,04,57,8.20
2006,02,02,04,58,6.20
2006,02,02,04,59,10.70
2006,02,02,05,00,9.70
2006,02,02,05,01,11.10
2006,02,02,05,02,10.60
2006,02,02,05,03,12.00
2006,02,02,05,04,13.20
2006,02,02,05,05,9.40
2006,02,02,05,06,10.40
2006,02,02,05,07,13.60
2006,02,02,05,08,13.30
2006,02,02,05,09,16.10
2006,02,02,05,10,19.00
2006,02,02,05,11,19.70
2006,02,02,05,12,16.40
2006,02,02,05,13,10.90
2006,02,02,05,14,11.40
2006,02,02,05,15,5.40
2006,02,02,05,16,6.90
2006,02,02,05,17,9.00
2006,02,02,05,18,9.00
2006,02,02,05,19,6.40
2006,02,02,05,20,13.90
2006,02,02,05,21,11.00
2006,02,02,05,22,9.40
2006,02,02,05,23,7.50
2006,02,02,05,24,8.60
2006,02,02,05,25,5.90
2006,02,02,05,26,6.30
2006,02,02,05,27,5.00
2006,02,02,05,28,6.40
2006,02,02,05,29,6.40
2006,02,02,05,30,6.40
2006,02,02,05,31,6.90
2006,02,02,05,32,7.20
2006,02,02,05,33,6.30
2006,02,02,05,34,5.50
2006,02,02,05,35,6.20
2006,02,02,05,36,8.00
2006,02,02,05,37,7.20
2006,02,02,05,38,6.20
2006,02,02,05,39,7.90
2006,02,02,05,40,7.80
2006,02,02,05,41,9.10
2006,02,02,05,42,11.30
2006,02,02,05,43,15.70
2006,02,02,05,44,15.20
2006,02,02,05,45,9.30
2006,02,02,05,46,7.40
2006,02,02,05,47,7.90
2006,02,02,05,48,6.60
2006,02,02,05,49,8.20
2006,02,02,05,50,6.60
2006,02,02,05,51,8.70
2006,02,02,05,52,7.10
2006,02,02,05,53,7.00
2006,02,02,05,54,9.70
2006,02,02,05,55,7.40
2006,02,02,05,56,8.10
2006,02,02,05,57,11.70
2006,02,02,05,58,18.80
2006,02,02,05,59,13.40
2006,02,02,06,00,10.40
2006,02,02,06,01,11.20
2006,02,02,06,02,9.20
2006,02,02,06,03,5.90
2006,02,02,06,04,7.50
2006,02,02,06,05,10.00
2006,02,02,06,06,14.00
2006,02,02,06,07,12.40
2006,02,02,06,08,13.70
2006,02,02,06,09,14.20
2006,02,02,06,10,11.20
2006,02,02,06,11,10.40
2006,02,02,06,12,7.20
2006,02,02,06,13,9.70
2006,02,02,06,14,10.80
2006,02,02,06,15,14.10
2006,02,02,06,16,13.70
2006,02,02,06,17,8.10
2006,02,02,06,18,10.50
2006,02,02,06,19,9.00
2006,02,02,06,20,8.10
2006,02,02,06,21,6.60
2006,02,02,06,22,9.00
2006,02,02,06,23,12.40
2006,02,02,06,24,11.60
2006,02,02,06,25,15.60
2006,02,02,06,26,11.50
2006,02,02,06,27,7.40
2006,02,02,06,28,9.10
2006,02,02,06,29,7.80
2006,02,02,06,30,6.30
2006,02,02,06,31,11.30
2006,02,02,06,32,5.90
2006,02,02,06,33,5.10
2006,02,02,06,34,6.40
2006,02,02,06,35,5.90
2006,02,02,06,36,6.90
2006,02,02,06,37,7.00
2006,02,02,06,38,6.20
2006,02,02,06,39,6.50
2006,02,02,06,40,7.30
2006,02,02,06,41,5.80
2006,02,02,06,42,5.10
2006,02,02,06,43,7.90
2006,02,02,06,44,6.20
2006,02,02,06,45,6.30
2006,02,02,06,46,6.50
2006,02,02,06,47,3.90
2006,02,02,06,48,6.70
2006,02,02,06,49,8.30
2006,02,02,06,50,8.10
2006,02,02,06,51,7.60
2006,02,02,06,52,7.80
2006,02,02,06,53,10.80
2006,02,02,06,54,8.60
2006,02,02,06,55,8.30
2006,02,02,06,56,9.10
2006,02,02,06,57,9.00
2006,02,02,06,58,9.30
2006,02,02,06,59,10.70
2006,02,02,07,00,12.60
2006,02,02,07,01,7.20
2006,02,02,07,02,13.40
2006,02,02,07,03,7.70
2006,02,02,07,04,11.30
2006,02,02,07,05,10.30
2006,02,02,07,06,8.10
2006,02,02,07,07,7.80
2006,02,02,07,08,6.10
2006,02,02,07,09,11.50
2006,02,02,07,10,12.30
2006,02,02,07,11,8.90
2006,02,02,07,12,6.10
2006,02,02,07,13,9.70
2006,02,02,07,14,7.10
2006,02,02,07,15,9.90
2006,02,02,07,16,12.00
2006,02,02,07,17,13.40
2006,02,02,07,18,13.20
2006,02,02,07,19,8.10
2006,02,02,07,20,10.60
2006,02,02,07,21,11.10
2006,02,02,07,22,5.80
2006,02,02,07,23,8.90
2006,02,02,07,24,14.40
2006,02,02,07,25,11.50
2006,02,02,07,26,12.80
2006,02,02,07,27,8.80
2006,02,02,07,28,8.30
2006,02,02,07,29,8.50
2006,02,02,07,30,12.90
2006,02,02,07,31,8.60
2006,02,02,07,32,6.40
2006,02,02,07,33,11.10
2006,02,02,07,34,8.60
2006,02,02,07,35,9.10
2006,02,02,07,36,10.50
2006,02,02,07,37,6.70
2006,02,02,07,38,8.50
2006,02,02,07,39,9.10
2006,02,02,07,40,9.10
2006,02,02,07,41,8.70
2006,02,02,07,42,8.10
2006,02,02,07,43,8.10
2006,02,02,07,44,7.20
2006,02,02,07,45,5.60
2006,02,02,07,46,5.60
2006,02,02,07,47,5.80
2006,02,02,07,48,5.20
2006,02,02,07,49,3.70
2006,02,02,07,50,5.60
2006,02,02,07,51,8.20
2006,02,02,07,52,6.40
2006,02,02,07,53,5.50
2006,02,02,07,54,7.40
2006,02,02,07,55,6.00
2006,02,02,07,56,6.30
2006,02,02,07,57,5.10
2006,02,02,07,58,6.40
2006,02,02,07,59,5.50
2006,02,02,08,00,4.80
2006,02,02,08,01,4.50
2006,02,02,08,02,3.90
2006,02,02,08,03,4.80
2006,02,02,08,04,4.80
2006,02,02,08,05,4.10
2006,02,02,08,06,4.70
2006,02,02,08,07,3.50
2006,02,02,08,08,4.10
2006,02,02,08,09,4.50
2006,02,02,08,10,4.40
2006,02,02,08,11,3.30
2006,02,02,08,12,4.10
2006,02,02,08,13,6.40
2006,02,02,08,14,6.70
2006,02,02,08,15,5.60
2006,02,02,08,16,4.60
2006,02,02,08,17,11.50
2006,02,02,08,18,13.10
2006,02,02,08,19,9.20
2006,02,02,08,20,15.00
2006,02,02,08,21,14.90
2006,02,02,08,22,20.30
2006,02,02,08,23,20.50
2006,02,02,08,24,19.90
2006,02,02,08,25,16.00
2006,02,02,08,26,21.60
2006,02,02,08,27,17.80
2006,02,02,08,28,12.30
2006,02,02,08,29,10.30
2006,02,02,08,30,19.60
2006,02,02,08,31,17.30
2006,02,02,08,32,16.30
2006,02,02,08,33,10.90
2006,02,02,08,34,11.10
2006,02,02,08,35,11.10
2006,02,02,08,36,13.90
2006,02,02,08,37,12.20
2006,02,02,08,38,10.00
2006,02,02,08,39,12.60
2006,02,02,08,40,14.80
2006,02,02,08,41,14.60
2006,02,02,08,42,8.90
2006,02,02,08,43,8.80
2006,02,02,08,44,11.10
2006,02,02,08,45,10.40
2006,02,02,08,46,9.50
2006,02,02,08,47,10.00
2006,02,02,08,48,11.30
2006,02,02,08,49,6.90
2006,02,02,08,50,12.30
2006,02,02,08,51,8.70
2006,02,02,08,52,11.10
2006,02,02,08,53,7.20
2006,02,02,08,54,7.90
2006,02,02,08,55,8.30
2006,02,02,08,56,10.20
2006,02,02,08,57,12.00
2006,02,02,08,58,11.10
2006,02,02,08,59,7.10
2006,02,02,09,00,7.40
2006,02,02,09,01,9.90
2006,02,02,09,02,7.80
2006,02,02,09,03,8.30
2006,02,02,09,04,7.10
2006,02,02,09,05,9.00
2006,02,02,09,06,10.80
2006,02,02,09,07,7.70
2006,02,02,09,08,5.70
2006,02,02,09,09,6.30
2006,02,02,09,10,9.80
2006,02,02,09,11,9.90
2006,02,02,09,12,9.80
2006,02,02,09,13,8.50
2006,02,02,09,14,6.70
2006,02,02,09,15,10.20
2006,02,02,09,16,8.10
2006,02,02,09,17,7.40
2006,02,02,09,18,12.90
2006,02,02,09,19,8.20
2006,02,02,09,20,6.40
2006,02,02,09,21,6.60
2006,02,02,09,22,8.60
2006,02,02,09,23,5.30
2006,02,02,09,24,6.20
2006,02,02,09,25,9.60
2006,02,02,09,26,9.60
2006,02,02,09,27,9.60
2006,02,02,09,28,6.80
2006,02,02,09,29,4.00
2006,02,02,09,30,5.10
2006,02,02,09,31,5.30
2006,02,02,09,32,6.80
2006,02,02,09,33,4.90
2006,02,02,09,34,4.60
2006,02,02,09,35,5.20
2006,02,02,09,36,4.90
2006,02,02,09,37,6.10
2006,02,02,09,38,6.00
2006,02,02,09,39,6.80
2006,02,02,09,40,8.80
2006,02,02,09,41,6.90
2006,02,02,09,42,7.20
2006,02,02,09,43,7.80
2006,02,02,09,44,4.60
2006,02,02,09,45,5.30
2006,02,02,09,46,6.20
2006,02,02,09,47,3.50
2006,02,02,09,48,7.10
2006,02,02,09,49,5.10
2006,02,02,09,50,4.40
2006,02,02,09,51,2.90
2006,02,02,09,52,5.00
2006,02,02,09,53,4.00
2006,02,02,09,54,4.50
2006,02,02,09,55,5.50
2006,02,02,09,56,5.80
2006,02,02,09,57,3.70
2006,02,02,09,58,7.10
2006,02,02,09,59,6.00
2006,02,02,10,00,4.30
2006,02,02,10,01,4.80
2006,02,02,10,02,4.80
2006,02,02,10,03,4.80
2006,02,02,10,04,6.20
2006,02,02,10,05,5.20
2006,02,02,10,06,4.20
2006,02,02,10,07,5.10
2006,02,02,10,08,7.70
2006,02,02,10,09,6.00
2006,02,02,10,10,7.30
2006,02,02,10,11,5.70
2006,02,02,10,12,4.80
2006,02,02,10,13,6.90
2006,02,02,10,14,8.70
2006,02,02,10,15,8.70
2006,02,02,10,16,2.60
2006,02,02,10,17,1.60
2006,02,02,10,18,5.30
2006,02,02,10,19,5.00
2006,02,02,10,20,4.50
2006,02,02,10,21,7.10
2006,02,02,10,22,8.20
2006,02,02,10,23,5.70
2006,02,02,10,24,5.60
2006,02,02,10,25,5.40
2006,02,02,10,26,5.70
2006,02,02,10,27,6.80
2006,02,02,10,28,4.10
2006,02,02,10,29,6.20
2006,02,02,10,30,6.40
2006,02,02,10,31,6.40
2006,02,02,10,32,6.40
2006,02,02,10,33,6.20
2006,02,02,10,34,5.50
2006,02,02,10,35,7.50
2006,02,02,10,36,7.20
2006,02,02,10,37,7.20
2006,02,02,10,38,4.80
2006,02,02,10,39,4.30
2006,02,02,10,40,5.70
2006,02,02,10,41,6.90
2006,02,02,10,42,8.80
2006,02,02,10,43,6.20
2006,02,02,10,44,6.70
2006,02,02,10,45,8.50
2006,02,02,10,46,6.90
2006,02,02,10,47,7.00
2006,02,02,10,48,7.40
2006,02,02,10,49,5.20
2006,02,02,10,50,5.70
2006,02,02,10,51,8.80
2006,02,02,10,52,5.20
2006,02,02,10,53,4.70
2006,02,02,10,54,5.40
2006,02,02,10,55,3.10
2006,02,02,10,56,4.60
2006,02,02,10,57,6.50
2006,02,02,10,58,2.40
2006,02,02,10,59,4.60
2006,02,02,11,00,4.70
2006,02,02,11,01,4.60
2006,02,02,11,02,8.10
2006,02,02,11,03,5.10
2006,02,02,11,04,1.70
2006,02,02,11,05,7.10
2006,02,02,11,06,4.80
2006,02,02,11,07,3.70
2006,02,02,11,08,3.70
2006,02,02,11,09,4.70
2006,02,02,11,10,5.30
2006,02,02,11,11,5.20
2006,02,02,11,12,10.10
2006,02,02,11,13,7.40
2006,02,02,11,14,8.80
2006,02,02,11,15,6.10
2006,02,02,11,16,5.70
2006,02,02,11,17,8.00
2006,02,02,11,18,8.70
2006,02,02,11,19,15.30
2006,02,02,11,20,9.60
2006,02,02,11,21,6.40
2006,02,02,11,22,9.70
2006,02,02,11,23,11.90
2006,02,02,11,24,11.80
2006,02,02,11,25,10.70
2006,02,02,11,26,7.50
2006,02,02,11,27,7.00
2006,02,02,11,28,6.40
2006,02,02,11,29,7.90
2006,02,02,11,30,10.70
2006,02,02,11,31,11.20
2006,02,02,11,32,10.90
2006,02,02,11,33,10.30
2006,02,02,11,34,8.10
2006,02,02,11,35,6.60
2006,02,02,11,36,3.00
2006,02,02,11,37,8.30
2006,02,02,11,38,5.60
2006,02,02,11,39,6.40
2006,02,02,11,40,13.40
2006,02,02,11,41,8.10
2006,02,02,11,42,4.00
2006,02,02,11,43,7.30
2006,02,02,11,44,7.10
2006,02,02,11,45,6.10
2006,02,02,11,46,7.80
2006,02,02,11,47,7.80
2006,02,02,11,48,6.60
2006,02,02,11,49,6.70
2006,02,02,11,50,6.30
2006,02,02,11,51,7.90
2006,02,02,11,52,6.00
2006,02,02,11,53,3.50
2006,02,02,11,54,3.90
2006,02,02,11,55,5.10
2006,02,02,11,56,5.90
2006,02,02,11,57,5.50
2006,02,02,11,58,5.70
2006,02,02,11,59,7.20
2006,02,02,12,00,5.40
2006,02,02,12,01,7.10
2006,02,02,12,02,7.50
2006,02,02,12,03,8.10
2006,02,02,12,04,9.30
2006,02,02,12,05,6.10
2006,02,02,12,06,8.70
2006,02,02,12,07,8.60
2006,02,02,12,08,5.80
2006,02,02,12,09,8.50
2006,02,02,12,10,7.00
2006,02,02,12,11,9.00
2006,02,02,12,12,8.10
2006,02,02,12,13,8.30
2006,02,02,12,14,8.70
2006,02,02,12,15,8.50
2006,02,02,12,16,7.00
2006,02,02,12,17,11.50
2006,02,02,12,18,10.30
2006,02,02,12,19,10.30
2006,02,02,12,20,10.90
2006,02,02,12,21,15.30
2006,02,02,12,22,13.10
2006,02,02,12,23,13.60
2006,02,02,12,24,7.80
2006,02,02,12,25,9.20
2006,02,02,12,26,7.00
2006,02,02,12,27,5.40
2006,02,02,12,28,11.20
2006,02,02,12,29,8.40
2006,02,02,12,30,9.60
2006,02,02,12,31,11.80
2006,02,02,12,32,8.90
2006,02,02,12,33,4.40
2006,02,02,12,34,8.90
2006,02,02,12,35,10.30
2006,02,02,12,36,9.70
2006,02,02,12,37,9.10
2006,02,02,12,38,8.10
2006,02,02,12,39,5.20
2006,02,02,12,40,4.30
2006,02,02,12,41,4.80
2006,02,02,12,42,7.50
2006,02,02,12,43,7.10
2006,02,02,12,44,8.70
2006,02,02,12,45,9.70
2006,02,02,12,46,4.20
2006,02,02,12,47,4.10
2006,02,02,12,48,7.00
2006,02,02,12,49,9.60
2006,02,02,12,50,5.00
2006,02,02,12,51,6.90
2006,02,02,12,52,6.70
2006,02,02,12,53,4.30
2006,02,02,12,54,5.00
2006,02,02,12,55,4.50
2006,02,02,12,56,7.80
2006,02,02,12,57,8.80
2006,02,02,12,58,9.00
2006,02,02,12,59,9.60
2006,02,02,13,00,7.80
2006,02,02,13,01,7.10
2006,02,02,13,02,7.00
2006,02,02,13,03,9.50
2006,02,02,13,04,7.00
2006,02,02,13,05,8.20
2006,02,02,13,06,5.90
2006,02,02,13,07,4.60
2006,02,02,13,08,3.30
2006,02,02,13,09,7.20
2006,02,02,13,10,8.30
2006,02,02,13,11,9.70
2006,02,02,13,12,5.90
2006,02,02,13,13,4.80
2006,02,02,13,14,5.20
2006,02,02,13,15,4.80
2006,02,02,13,16,4.80
2006,02,02,13,17,4.10
2006,02,02,13,18,5.10
2006,02,02,13,19,8.40
2006,02,02,13,20,6.70
2006,02,02,13,21,6.80
2006,02,02,13,22,3.80
2006,02,02,13,23,4.80
2006,02,02,13,24,6.10
2006,02,02,13,25,3.60
2006,02,02,13,26,4.60
2006,02,02,13,27,2.10
2006,02,02,13,28,2.80
2006,02,02,13,29,3.40
2006,02,02,13,30,6.80
2006,02,02,13,31,6.40
2006,02,02,13,32,8.90
2006,02,02,13,33,7.20
2006,02,02,13,34,5.70
2006,02,02,13,35,7.50
2006,02,02,13,36,6.90
2006,02,02,13,37,11.30
2006,02,02,13,38,8.60
2006,02,02,13,39,7.90
2006,02,02,13,40,9.20
2006,02,02,13,41,6.50
2006,02,02,13,42,4.00
2006,02,02,13,43,5.40
2006,02,02,13,44,6.50
2006,02,02,13,45,5.70
2006,02,02,13,46,4.10
2006,02,02,13,47,5.20
2006,02,02,13,48,7.30
2006,02,02,13,49,4.00
2006,02,02,13,50,6.20
2006,02,02,13,51,3.90
2006,02,02,13,52,5.20
2006,02,02,13,53,4.50
2006,02,02,13,54,3.00
2006,02,02,13,55,5.10
2006,02,02,13,56,5.30
2006,02,02,13,57,8.30
2006,02,02,13,58,6.40
2006,02,02,13,59,5.60
2006,02,02,14,00,7.00
2006,02,02,14,01,8.50
2006,02,02,14,02,6.60
2006,02,02,14,03,7.20
2006,02,02,14,04,7.70
2006,02,02,14,05,5.40
2006,02,02,14,06,7.10
2006,02,02,14,07,8.30
2006,02,02,14,08,11.50
2006,02,02,14,09,8.70
2006,02,02,14,10,6.20
2006,02,02,14,11,6.40
2006,02,02,14,12,3.90
2006,02,02,14,13,4.50
2006,02,02,14,14,8.30
2006,02,02,14,15,7.80
2006,02,02,14,16,6.70
2006,02,02,14,17,6.40
2006,02,02,14,18,5.50
2006,02,02,14,19,3.20
2006,02,02,14,20,3.60
2006,02,02,14,21,3.40
2006,02,02,14,22,3.00
2006,02,02,14,23,2.50
2006,02,02,14,24,2.70
2006,02,02,14,25,3.40
2006,02,02,14,26,3.50
2006,02,02,14,27,2.70
2006,02,02,14,28,2.20
2006,02,02,14,29,2.70
2006,02,02,14,30,2.80
2006,02,02,14,31,3.20
2006,02,02,14,32,3.50
2006,02,02,14,33,4.10
2006,02,02,14,34,5.80
2006,02,02,14,35,5.80
2006,02,02,14,36,5.30
2006,02,02,14,37,4.80
2006,02,02,14,38,5.80
2006,02,02,14,39,4.60
2006,02,02,14,40,6.40
2006,02,02,14,41,5.20
2006,02,02,14,42,6.10
2006,02,02,14,43,3.20
2006,02,02,14,44,3.20
2006,02,02,14,45,4.00
2006,02,02,14,46,3.30
2006,02,02,14,47,1.30
2006,02,02,14,48,3.50
2006,02,02,14,49,4.60
2006,02,02,14,50,6.40
2006,02,02,14,51,7.50
2006,02,02,14,52,4.30
2006,02,02,14,53,2.50
2006,02,02,14,54,4.00
2006,02,02,14,55,3.30
2006,02,02,14,56,3.60
2006,02,02,14,57,1.30
2006,02,02,14,58,2.80
2006,02,02,14,59,2.80
2006,02,02,15,00,5.80
2006,02,02,15,01,4.90
2006,02,02,15,02,5.00
2006,02,02,15,03,3.40
2006,02,02,15,04,3.10
2006,02,02,15,05,4.40
2006,02,02,15,06,3.80
2006,02,02,15,07,5.70
2006,02,02,15,08,4.50
2006,02,02,15,09,4.90
2006,02,02,15,10,2.50
2006,02,02,15,11,3.20
2006,02,02,15,12,6.90
2006,02,02,15,13,5.90
2006,02,02,15,14,2.50
2006,02,02,15,15,6.30
2006,02,02,15,16,6.80
2006,02,02,15,17,4.40
2006,02,02,15,18,6.20
2006,02,02,15,19,3.60
2006,02,02,15,20,3.60
2006,02,02,15,21,1.70
2006,02,02,15,22,1.80
2006,02,02,15,23,5.20
2006,02,02,15,24,4.20
2006,02,02,15,25,5.20
2006,02,02,15,26,4.90
2006,02,02,15,27,4.60
2006,02,02,15,28,2.90
2006,02,02,15,29,1.60
2006,02,02,15,30,2.00
2006,02,02,15,31,3.60
2006,02,02,15,32,4.50
2006,02,02,15,33,4.80
2006,02,02,15,34,2.90
2006,02,02,15,35,4.80
2006,02,02,15,36,5.60
2006,02,02,15,37,4.50
2006,02,02,15,38,4.20
2006,02,02,15,39,3.60
2006,02,02,15,40,3.60
2006,02,02,15,41,2.60
2006,02,02,15,42,2.30
2006,02,02,15,43,3.40
2006,02,02,15,44,2.90
2006,02,02,15,45,2.50
2006,02,02,15,46,1.90
2006,02,02,15,47,3.80
2006,02,02,15,48,5.30
2006,02,02,15,49,2.10
2006,02,02,15,50,1.50
2006,02,02,15,51,1.90
2006,02,02,15,52,3.10
2006,02,02,15,53,3.90
2006,02,02,15,54,3.20
2006,02,02,15,55,3.70
2006,02,02,15,56,1.20
2006,02,02,15,57,3.10
2006,02,02,15,58,2.50
2006,02,02,15,59,0.60
2006,02,02,16,00,2.80
2006,02,02,16,01,1.50
2006,02,02,16,02,0.60
2006,02,02,16,03,2.40
2006,02,02,16,04,2.80
2006,02,02,16,05,3.30
2006,02,02,16,06,4.70
2006,02,02,16,07,4.50
2006,02,02,16,08,2.90
2006,02,02,16,09,2.20
2006,02,02,16,10,1.10
2006,02,02,16,11,1.40
2006,02,02,16,12,2.40
2006,02,02,16,13,3.00
2006,02,02,16,14,1.60
2006,02,02,16,15,1.60
2006,02,02,16,16,2.00
2006,02,02,16,17,3.90
2006,02,02,16,18,1.90
2006,02,02,16,19,2.50
2006,02,02,16,20,0.60
2006,02,02,16,21,0.10
2006,02,02,16,22,1.00
2006,02,02,16,23,2.40
2006,02,02,16,24,1.30
2006,02,02,16,25,2.80
2006,02,02,16,26,2.00
2006,02,02,16,27,2.10
2006,02,02,16,28,1.20
2006,02,02,16,29,2.20
2006,02,02,16,30,4.00
2006,02,02,16,31,2.50
2006,02,02,16,32,2.20
2006,02,02,16,33,1.10
2006,02,02,16,34,2.50
2006,02,02,16,35,3.50
2006,02,02,16,36,2.90
2006,02,02,16,37,2.50
2006,02,02,16,38,3.70
2006,02,02,16,39,1.30
2006,02,02,16,40,0.00
2006,02,02,16,41,1.80
2006,02,02,16,42,2.60
2006,02,02,16,43,3.30
2006,02,02,16,44,3.10
2006,02,02,16,45,4.10
2006,02,02,16,46,3.60
2006,02,02,16,47,4.20
2006,02,02,16,48,5.20
2006,02,02,16,49,4.00
2006,02,02,16,50,3.90
2006,02,02,16,51,2.40
2006,02,02,16,52,2.90
2006,02,02,16,53,5.50
2006,02,02,16,54,5.30
2006,02,02,16,55,6.40
2006,02,02,16,56,5.70
2006,02,02,16,57,5.90
2006,02,02,16,58,7.30
2006,02,02,16,59,3.50
2006,02,02,17,00,3.00
2006,02,02,17,01,2.30
2006,02,02,17,02,3.40
2006,02,02,17,03,4.40
2006,02,02,17,04,9.90
2006,02,02,17,05,6.40
2006,02,02,17,06,6.10
2006,02,02,17,07,4.70
2006,02,02,17,08,5.20
2006,02,02,17,09,4.30
2006,02,02,17,10,4.50
2006,02,02,17,11,4.70
2006,02,02,17,12,5.50
2006,02,02,17,13,4.70
2006,02,02,17,14,4.00
2006,02,02,17,15,1.10
2006,02,02,17,16,2.40
2006,02,02,17,17,0.80
2006,02,02,17,18,1.90
2006,02,02,17,19,0.40
2006,02,02,17,20,0.90
2006,02,02,17,21,0.70
2006,02,02,17,22,1.50
2006,02,02,17,23,0.80
2006,02,02,17,24,0.00
2006,02,02,17,25,0.30
2006,02,02,17,26,0.70
2006,02,02,17,27,1.10
2006,02,02,17,28,0.10
2006,02,02,17,29,0.40
2006,02,02,17,30,1.20
2006,02,02,17,31,0.60
2006,02,02,17,32,0.30
2006,02,02,17,33,1.30
2006,02,02,17,34,1.40
2006,02,02,17,35,0.00
2006,02,02,17,36,0.10
2006,02,02,17,37,0.10
2006,02,02,17,38,0.60
2006,02,02,17,39,1.70
2006,02,02,17,40,1.80
2006,02,02,17,41,1.20
2006,02,02,17,42,0.50
2006,02,02,17,43,0.00
2006,02,02,17,44,0.40
2006,02,02,17,45,0.20
2006,02,02,17,46,0.80
2006,02,02,17,47,0.00
2006,02,02,17,48,0.60
2006,02,02,17,49,0.00
2006,02,02,17,50,0.00
2006,02,02,17,51,0.30
2006,02,02,17,52,1.40
2006,02,02,17,53,1.70
2006,02,02,17,54,2.60
2006,02,02,17,55,3.50
2006,02,02,17,56,1.20
2006,02,02,17,57,1.00
2006,02,02,17,58,0.90